Weather Roundup
Issued by NWS Chicago, IL

Home | Current Version | Previous Version | Graphics & Text | Print | Product List | Glossary On
Versions: 1 2 3 4 5 6 7 8 9 10 11 12 13 14 15 16 17 18 19 20 21 22 23 24 25 26 27 28 29 30 31 32 33 34 35 36 37 38 39 40 41 42 43 44 45 46 47 48 49 50
000
NZUS59 KLOT 292312
HRRLOT

CHICAGO AREA WEATHER ROUNDUP
NATIONAL WEATHER SERVICE CHICAGO/ROMEOVILLE IL
600 PM CDT SAT AUG 29 2015

NOTE: "FAIR" INDICATES FEW OR NO CLOUDS BELOW 12,000 FEET WITH NO
SIGNIFICANT WEATHER AND/OR OBSTRUCTIONS TO VISIBILITY.

* THESE STATIONS ARE NOT UNDER NWS QUALITY CONTROL. THEY ALSO MAY NOT
  REPORT WEATHER SUCH AS PRECIPITATION OR FOG.

ILZ005-006-012>014-019>023-300000-
NORTHEAST ILLINOIS

CITY           SKY/WX    TMP DP  RH WIND       PRES   REMARKS
OHARE          LGT RAIN  69  67  93 NE5       30.00S FOG
MIDWAY         LGT RAIN  72  67  84 VRB3      29.99F
AURORA         LGT RAIN  70  68  93 CALM      30.01R FOG
LANSING*       CLOUDY    74  68  81 S3        30.00S
JOLIET*        CLOUDY    74  70  85 N6        29.99S
WAUKEGAN       CLOUDY    67  65  93 CALM      30.01R FOG
DUPAGE AIRPORT LGT RAIN  70  66  87 CALM      30.00S FOG
WHEELING       LGT RAIN  70  65  84 CALM      30.01S
KANKAKEE*      CLOUDY    74  72  92 CALM      30.01R
MORRIS*        CLOUDY    72  67  86 CALM      29.99R
LEWIS AIRPORT* RAIN      71  67  85 NW5       30.00S
NORTHERLY IS     N/A     66  63  90 NW1         N/A
$$

WIZ051-052-058>065-066-070>072-300000-
SOUTHEAST WISCONSIN

CITY           SKY/WX    TMP DP  RH WIND       PRES   REMARKS
MILWAUKEE      DRZL/FOG  60  59  96 NE8       30.02S VSB 1/2
KENOSHA*       CLOUDY    64  62  93 N5        30.02S FOG
RACINE*        CLOUDY    62  60  93 N6        30.03S FOG
BURLINGTON     CLOUDY    63  62  97 NE5       30.02S FOG
WAUKESHA       CLOUDY    63  61  94 NE6       30.05R FOG
WEST BEND      CLOUDY    63  59  88 CALM      30.05R
$$

INZ001>003-010>013-019-020-300000-
NORTHWEST INDIANA

CITY           SKY/WX    TMP DP  RH WIND       PRES   REMARKS
GARY*          CLOUDY    75  66  73 CALM      30.00S
MICHIGAN CITY* NOT AVBL
RENSSELAER*    NOT AVBL
VALPARAISO     CLOUDY    72  69  90 CALM      30.02R
$$

LMZ740>746-300000-
SOUTHERN LAKE MICHIGAN

STATION/POSITION TIME  SKY/WX   TEMP WIND        PRES    VSBY
                                AIR  DIR/SP/G
                 (UTC)          (F)  (DEG/KT/KT) (MB)    (MI)
HARRISON CRIB    2200            66   10/  5/  6   N/A
BURNHAM HARBOR   2300            65   CALM  /  5   N/A
CALUMET HARBOR   NOT AVBL
BURNS HARBOR     2200            73  180/  5/  8 1016.3S
MICHIGAN CITY    2200            71  110/  5/  6   N/A
$$

ABBREVIATIONS USED IN REMARKS
   TC - TEMPERATURE IN CELSIUS
  WCI - WIND CHILL INDEX
   HX - HEAT INDEX
  VSB - VISIBILITY
$$


USA.gov is the U.S. government's official web portal to all federal, state and local government web resources and services.